Theta_e
313 311 310 308 307 306 306 305 302 300 300 299 300 299 299 300 300 300 301 301 300 299 300 300 300 301 300 301 302 302 301 300 299 300 300 301 304 310 320 323 324 324 325 324 323 322 321 320 320 319 318 318 317 316 315 315 314 314 314 313 313 314 313 313 313 313 313 313 313 313 312 312 312 312 311 312 312 312 311 311 311 311 311 311 311
313 311 309 308 307 306 307 303 301 299 299 298 298 299 298 298 298 299 300 300 299 298 298 298 298 298 298 298 298 298 298 297 297 297 298 299 301 304 312 318 321 322 322 322 324 323 321 320 319 319 319 318 316 315 314 315 315 313 313 313 313 312 313 313 313 313 312 312 312 312 311 311 311 311 311 311 312 311 311 310 310 311 311 311 310
314 312 310 309 307 308 306 302 300 299 299 298 298 298 298 298 299 299 299 299 298 298 298 297 296 296 296 295 295 296 295 294 295 295 296 297 298 300 303 310 316 320 320 321 321 320 319 321 320 321 320 319 317 316 314 314 313 313 313 312 312 312 312 312 312 312 312 311 311 311 311 311 310 310 311 310 310 310 310 310 310 310 310 310 310
315 312 311 309 308 308 304 302 300 298 298 297 297 297 298 298 298 299 299 298 297 297 297 296 294 294 293 292 292 293 292 292 293 293 294 294 295 297 298 302 307 313 317 318 318 317 317 317 316 317 318 318 317 316 314 313 313 313 312 312 311 312 312 312 311 311 311 311 311 310 310 310 310 310 310 309 309 309 310 310 309 310 310 309 309
316 314 312 310 309 307 304 302 300 298 297 297 297 297 297 297 297 297 297 297 296 295 296 294 292 291 291 290 291 290 290 291 291 292 292 292 293 294 295 297 298 303 307 313 315 314 315 315 316 315 315 315 316 315 314 313 313 312 312 311 312 312 312 312 310 311 310 310 310 310 309 309 309 309 309 308 308 309 309 309 308 309 309 309 308
318 315 314 311 310 307 304 301 300 299 298 297 297 297 297 297 296 296 297 296 295 294 294 292 291 291 290 289 289 289 289 289 289 289 290 290 290 291 292 293 294 295 298 304 311 314 313 314 313 313 314 314 313 314 313 313 312 312 311 311 311 311 312 311 312 311 310 311 309 309 309 309 308 308 308 308 308 308 308 309 309 308 309 308 308
319 317 315 313 311 307 304 301 300 299 299 298 297 297 297 297 296 296 295 295 294 294 293 291 291 290 289 289 288 287 288 288 288 288 288 287 288 288 289 290 291 292 293 294 300 309 313 312 313 312 312 313 313 313 312 313 312 311 311 312 312 311 311 311 311 310 310 309 309 308 308 308 307 308 308 307 307 307 308 308 308 308 308 307 307
321 318 316 314 312 308 305 301 300 299 299 298 297 296 296 297 297 296 294 293 293 291 291 290 290 289 288 288 287 288 286 286 287 287 287 287 287 287 288 288 289 290 292 290 292 299 307 309 312 311 311 312 312 312 312 312 311 311 310 311 311 311 310 310 310 310 309 308 308 308 307 307 307 307 307 307 307 307 307 307 307 307 306 306 306
321 319 317 315 313 310 305 301 300 299 299 298 298 298 297 297 296 296 295 293 292 290 290 290 289 288 288 287 287 287 286 286 286 287 288 286 286 286 287 287 288 290 285 286 287 290 299 304 307 309 310 309 309 311 310 311 311 312 311 310 310 310 309 309 309 308 307 307 307 307 307 306 306 306 306 306 306 306 306 307 306 306 305 306 306
322 320 318 316 314 311 305 302 300 300 299 298 297 297 297 296 294 294 294 293 291 290 289 289 289 288 287 286 286 286 286 286 288 289 286 286 286 286 285 285 286 285 285 285 285 286 288 294 299 302 305 309 308 309 309 309 309 310 311 309 309 309 308 308 308 307 307 307 306 306 306 306 306 306 306 306 306 306 306 305 305 305 305 305 305
322 320 318 316 314 310 305 302 301 299 298 297 297 296 296 296 294 292 293 292 291 290 289 289 288 288 287 286 286 285 285 286 286 285 285 286 287 288 287 286 285 284 284 284 284 284 285 286 286 287 293 306 307 307 307 308 308 308 309 309 309 308 307 307 307 307 306 306 306 306 306 305 305 305 305 305 305 306 306 305 306 305 305 305 305
324 321 319 315 313 309 305 303 301 299 298 297 296 295 295 294 293 292 291 291 291 290 289 288 287 286 287 286 285 285 285 285 285 285 286 285 286 286 285 285 284 283 283 283 283 283 284 284 286 284 286 292 299 301 306 307 307 308 308 309 309 308 307 306 306 306 306 305 305 305 305 305 305 305 305 305 304 305 305 306 305 306 304 305 305
324 321 319 314 313 309 305 302 301 300 298 297 297 296 295 294 293 292 290 289 288 288 288 288 286 285 285 285 285 285 287 284 284 284 284 285 285 285 284 284 282 283 282 283 282 282 282 283 283 283 284 284 286 294 298 300 305 308 308 308 308 308 307 306 306 305 305 305 304 304 304 304 304 304 304 304 304 305 305 305 305 305 305 305 305
322 321 318 316 312 308 305 303 301 300 299 298 297 296 295 293 293 291 291 290 288 288 288 287 285 284 283 283 283 283 285 284 284 284 284 284 284 284 283 283 283 282 282 282 282 282 282 282 283 283 283 283 284 285 287 290 294 304 306 308 307 307 306 306 305 305 304 304 304 304 303 303 304 304 304 304 304 304 305 304 304 304 304 305 305
323 320 318 316 312 309 306 304 302 301 299 299 298 295 294 293 292 291 290 290 289 289 288 289 285 285 284 282 280 280 284 283 283 284 284 283 283 283 283 282 282 282 282 282 282 282 282 282 282 282 282 283 284 284 286 289 292 297 300 302 304 306 305 305 304 304 304 303 303 303 303 303 303 303 303 303 303 304 304 304 303 304 304 305 305
323 321 319 316 313 309 307 304 302 301 300 298 296 295 294 293 292 291 291 288 287 287 289 288 287 284 281 280 278 278 277 279 279 282 282 283 283 283 283 282 282 282 282 282 282 282 282 281 281 282 282 283 283 284 285 285 290 293 294 296 299 303 304 304 304 304 303 303 303 302 302 302 302 302 303 303 303 304 303 303 303 303 304 304 304
323 321 318 317 313 311 308 305 303 302 301 299 297 296 294 294 294 292 291 289 287 287 288 287 287 286 285 280 278 278 277 278 280 280 282 282 282 282 283 282 282 283 282 281 281 281 281 281 281 281 281 282 283 283 282 282 283 287 287 292 296 297 300 303 303 303 303 303 302 302 301 301 301 302 302 302 302 303 303 303 302 302 303 303 303
321 321 319 317 314 311 309 306 304 302 301 300 298 297 295 294 294 292 291 291 289 287 286 288 287 286 286 289 283 281 279 279 281 276 281 281 281 282 283 282 282 282 281 281 281 281 283 281 281 282 281 281 281 281 281 281 284 280 283 287 298 298 298 300 302 302 303 303 302 301 301 301 301 301 301 301 301 302 302 302 302 302 302 303 303
317 319 318 316 314 312 309 307 306 304 302 300 298 297 295 295 294 293 292 292 290 287 287 286 287 286 287 290 288 284 283 281 278 278 276 279 280 281 281 282 282 282 282 281 281 281 282 282 281 281 280 280 280 280 280 282 286 287 293 297 298 297 297 296 297 299 301 301 301 300 301 301 301 301 300 300 300 301 301 301 302 302 302 302 302
315 316 318 316 313 312 310 308 306 304 302 301 299 298 296 296 294 295 293 292 290 289 287 287 285 286 286 286 285 283 284 282 283 282 280 278 277 279 279 281 281 282 282 282 281 281 281 280 280 279 279 279 279 279 279 278 277 278 283 296 298 297 297 296 296 295 296 298 299 299 300 301 301 300 300 300 300 300 300 301 301 301 301 301 301
313 314 316 316 312 312 310 308 306 305 301 302 300 298 297 295 294 294 293 292 291 292 289 287 287 287 286 286 283 282 282 279 281 278 277 277 278 279 279 280 281 281 281 281 281 281 281 280 279 279 280 280 280 279 279 278 278 278 287 294 298 298 297 296 295 295 294 295 296 297 299 300 300 300 299 299 299 300 300 300 300 300 300 301 301
311 313 313 314 313 311 310 308 307 305 302 302 300 298 297 296 295 294 293 292 292 291 290 289 288 288 288 288 283 281 281 280 280 279 279 279 278 278 279 279 279 280 281 281 281 281 280 280 280 280 280 279 279 278 278 278 278 279 284 290 294 296 296 295 295 295 294 294 294 294 296 297 298 299 299 299 299 299 299 300 299 299 300 300 300
308 309 311 312 312 310 310 309 308 305 302 302 300 299 298 297 296 296 295 294 292 291 290 290 289 288 289 288 287 284 284 281 281 281 281 278 279 278 279 280 280 279 280 281 281 281 280 279 280 279 279 279 279 278 278 278 282 284 285 288 291 292 293 295 294 294 294 293 293 294 294 294 295 297 297 298 298 299 299 299 299 299 299 299 299
306 307 309 310 310 311 309 309 307 306 303 303 302 300 299 298 297 295 294 294 293 291 290 289 290 289 290 290 289 286 286 285 284 284 283 281 282 279 279 280 279 279 279 280 281 280 279 279 280 280 279 278 278 279 278 279 281 286 283 286 289 291 292 293 294 293 293 293 292 293 293 293 294 294 295 296 298 298 298 299 298 299 299 299 299
305 305 307 309 309 309 309 308 307 306 304 303 302 301 299 298 297 296 295 293 292 291 290 290 290 289 290 291 290 287 287 286 285 285 283 282 281 279 278 280 277 278 279 281 280 280 279 279 279 279 278 278 279 279 279 280 279 285 285 284 287 289 289 289 291 292 292 292 292 292 292 292 293 294 295 295 297 297 297 297 298 298 299 298 298
304 304 307 308 308 309 309 309 308 307 305 304 303 301 300 298 297 296 295 294 293 292 291 291 291 290 291 290 288 288 288 286 286 285 283 281 280 280 279 278 277 278 278 280 278 279 279 279 279 279 278 278 279 279 279 279 279 285 286 280 283 287 287 288 289 291 292 292 291 291 291 291 292 293 293 295 295 296 296 297 297 297 297 298 298
304 305 305 306 307 308 308 308 308 307 305 304 303 302 300 298 297 296 295 295 293 293 291 291 292 291 291 291 289 288 287 285 286 286 285 284 283 281 280 278 277 278 278 279 278 278 278 278 280 279 279 279 279 279 279 278 280 284 285 280 278 284 286 288 290 291 291 291 291 291 291 291 291 292 293 293 293 293 294 296 296 296 296 296 296
304 304 304 305 306 307 307 307 307 307 305 304 303 302 300 298 297 296 295 296 294 293 292 292 291 292 291 291 289 288 287 285 286 286 285 284 284 282 282 282 280 277 278 277 278 278 280 279 278 279 279 279 280 279 281 281 280 285 285 278 277 279 284 286 289 291 291 291 291 291 291 290 291 291 292 292 292 292 292 293 293 293 293 293 294
303 303 303 303 305 306 306 306 306 306 305 304 303 302 301 299 298 297 296 295 294 293 293 292 292 292 291 290 290 289 286 285 285 285 285 283 283 283 284 283 283 281 277 277 278 278 279 280 279 279 279 279 280 279 280 279 281 283 281 278 277 276 282 285 288 291 292 292 292 291 291 290 290 291 291 291 292 292 292 293 293 293 293 293 293
303 302 302 302 303 302 305 305 305 305 304 303 303 302 301 299 298 297 296 295 294 293 293 292 292 291 291 289 289 289 286 285 285 284 284 283 282 283 284 284 285 283 281 278 279 280 280 280 281 279 279 279 280 280 279 279 282 283 279 277 277 277 283 284 286 289 290 291 292 292 291 291 290 290 291 291 291 291 292 292 292 292 292 293 293
301 301 301 301 301 301 303 304 303 303 303 302 301 301 300 298 297 296 295 294 294 293 293 292 292 291 290 289 288 288 285 285 284 283 283 283 283 283 283 283 283 284 282 281 278 279 281 279 280 280 280 279 280 280 280 279 281 283 279 277 277 280 283 283 285 286 287 288 289 290 290 290 290 290 290 291 291 291 291 291 291 291 292 292 292
302 301 300 300 299 300 300 301 301 301 300 300 299 299 298 297 297 296 296 294 294 293 292 291 291 290 290 289 287 286 284 283 283 282 282 282 282 283 282 282 281 282 283 281 280 278 281 281 281 280 280 280 280 279 278 279 280 284 280 277 277 282 281 280 283 284 285 286 288 289 289 290 291 291 290 290 290 290 290 290 290 291 291 290 291
300 300 299 299 299 299 298 298 299 299 299 298 297 297 297 296 296 296 295 294 293 293 292 290 289 288 288 288 287 286 283 283 282 281 281 281 281 282 281 281 280 280 281 280 280 277 278 278 280 280 280 280 279 279 278 278 277 279 282 278 277 278 278 278 277 281 283 284 286 287 288 289 290 290 290 290 290 290 289 290 290 289 289 290 290
300 299 299 298 298 298 297 298 297 297 298 299 296 296 296 295 295 295 294 293 293 293 291 289 288 288 288 287 286 285 283 283 282 281 281 281 281 281 280 281 281 280 281 280 278 279 278 277 278 279 278 280 278 279 278 277 277 277 278 278 277 277 277 276 276 276 282 284 285 286 287 289 289 290 291 290 290 289 290 289 288 288 288 289 288
299 299 298 297 297 297 297 296 297 297 297 297 296 296 296 296 295 294 294 292 292 292 290 289 288 287 287 287 286 284 283 282 281 282 281 281 281 280 280 281 281 280 280 279 278 278 278 277 278 278 278 278 278 278 278 278 277 277 276 277 277 277 277 276 276 276 281 284 286 287 288 289 289 289 290 290 289 289 288 288 288 288 287 287 287
298 297 297 297 297 296 296 296 296 297 297 296 296 295 296 296 295 294 293 292 292 292 291 290 288 287 287 286 285 284 283 282 281 281 280 280 280 281 280 280 281 280 279 278 280 279 279 277 277 278 278 278 278 276 278 277 276 276 276 276 276 276 276 277 276 276 279 284 285 286 287 288 289 289 289 289 289 288 288 288 288 287 287 286 286
298 296 296 296 296 295 295 296 296 296 296 296 296 295 295 296 296 295 294 293 292 292 291 290 288 287 287 286 285 283 283 282 281 280 280 280 280 280 280 279 279 279 278 278 278 278 279 279 278 278 278 278 278 277 277 276 276 275 274 275 275 275 275 275 276 277 280 283 285 285 286 287 288 288 288 288 288 287 287 287 287 287 286 286 285
297 296 295 295 295 295 295 295 296 296 297 297 296 295 295 295 295 294 293 292 292 292 291 290 289 287 287 286 285 284 283 282 281 280 280 280 280 280 279 278 278 278 278 277 278 278 279 279 278 276 277 277 276 276 276 277 276 275 275 275 274 274 274 274 275 276 277 277 277 279 283 284 286 287 287 287 286 286 286 286 286 286 285 284 283
297 296 294 294 294 294 295 295 295 295 295 295 296 295 295 294 294 294 293 292 292 292 291 290 289 287 287 287 285 284 284 283 282 281 281 280 280 280 279 278 278 278 278 277 277 277 278 277 277 277 277 277 277 276 276 277 276 275 274 273 274 274 274 274 274 276 276 277 279 282 281 280 281 281 282 283 284 285 286 286 285 284 282 282 282
296 296 295 294 293 293 294 294 294 294 294 294 294 294 294 294 294 293 293 292 292 292 291 290 289 287 287 286 285 284 284 284 283 282 282 281 280 279 279 279 278 278 278 278 277 277 277 277 277 276 276 276 275 275 274 275 273 273 274 274 274 273 272 273 274 275 275 276 275 275 280 282 283 283 285 285 284 283 283 282 281 281 280 281 281
296 296 295 293 293 292 292 293 293 293 293 293 294 293 293 293 293 293 293 292 292 291 291 290 288 287 286 286 285 284 284 284 284 284 284 284 281 280 278 279 279 279 278 278 278 278 277 277 277 276 275 275 275 275 273 273 273 275 274 274 273 274 273 273 274 275 275 274 274 275 274 275 274 274 274 274 275 277 277 279 279 279 279 280 281
294 295 295 293 292 292 292 292 292 292 292 293 291 292 293 293 292 292 291 291 290 290 289 288 287 287 286 286 285 284 284 284 284 285 285 285 285 282 280 280 280 280 279 278 278 278 278 277 277 276 275 275 275 275 275 275 275 274 272 273 272 272 272 272 273 274 275 274 273 273 273 274 273 273 273 272 272 275 275 275 274 276 279 281 282
293 294 294 294 292 292 292 291 291 291 291 292 291 293 293 293 292 291 291 290 289 289 289 288 287 286 286 285 285 284 284 284 284 285 286 286 286 285 284 284 283 281 279 278 278 278 277 277 277 276 276 276 276 276 275 276 275 275 274 273 274 273 272 271 272 273 274 274 273 271 272 272 273 271 271 272 272 273 274 274 278 279 280 281 282
292 293 293 294 293 293 292 291 291 291 291 290 292 292 293 293 292 291 291 290 289 289 288 288 287 286 285 285 284 283 283 283 283 283 285 286 286 285 285 285 285 285 285 281 279 278 278 277 276 276 277 277 277 276 275 275 275 274 274 274 274 273 273 272 271 271 273 274 272 270 271 270 271 271 270 272 273 273 273 276 279 280 281 281 281
291 291 292 293 293 293 292 291 291 291 291 291 292 292 292 293 293 291 290 290 289 288 288 288 287 286 285 284 283 282 283 283 283 283 283 283 285 285 285 285 284 286 286 286 285 282 280 279 278 277 277 278 277 277 277 276 277 275 274 273 273 273 274 273 273 272 271 272 271 271 270 271 271 271 271 272 273 272 273 278 279 279 280 281 282
289 290 290 291 292 292 292 291 291 291 290 290 292 292 292 292 292 291 289 289 289 288 288 288 287 286 285 284 282 282 282 282 282 282 282 282 282 282 282 281 282 283 285 286 285 284 282 281 280 279 279 279 278 278 278 279 276 275 274 274 274 273 272 273 274 273 272 273 272 270 268 269 270 271 271 271 272 272 271 274 278 279 280 281 281
288 289 289 289 291 290 291 291 290 290 290 291 291 291 292 292 292 292 289 288 288 288 287 287 287 286 284 284 283 282 281 282 281 282 282 282 282 281 280 280 281 282 283 284 283 282 281 281 281 281 281 279 279 277 278 279 278 277 277 276 275 274 272 270 269 270 271 272 272 271 268 268 269 269 270 269 269 270 271 275 278 279 279 280 280
288 289 289 289 289 289 290 289 289 289 290 291 291 291 291 292 292 290 289 288 287 287 286 286 286 286 285 284 283 283 282 282 283 285 284 282 282 280 280 280 281 281 282 284 286 285 283 282 281 280 280 279 281 278 278 278 278 277 275 271 271 270 269 269 271 266 268 271 272 272 266 265 268 269 269 269 269 269 269 269 275 278 278 278 278
288 288 288 288 288 289 288 289 289 289 289 290 290 290 291 292 291 289 289 287 287 286 286 286 285 285 284 284 283 283 282 281 284 286 286 285 282 281 280 280 280 280 280 282 285 286 285 285 284 283 283 284 284 284 284 284 279 277 273 271 272 269 269 269 270 267 268 269 271 272 268 267 269 270 268 268 269 269 269 269 270 275 276 277 278
287 288 288 288 288 288 288 288 289 288 288 289 289 290 290 291 290 288 288 287 286 286 285 285 284 283 283 283 282 281 281 281 285 286 287 284 282 281 281 280 279 279 280 281 281 283 285 285 285 284 284 284 284 284 285 284 284 280 274 273 271 270 271 270 270 268 264 266 270 272 266 266 264 267 266 265 265 265 269 269 269 270 275 275 276
288 288 287 287 287 287 288 288 287 288 288 288 289 289 290 290 289 288 288 287 286 285 284 283 283 282 282 282 282 282 281 282 285 287 287 284 282 282 281 280 279 278 280 280 279 279 279 280 281 282 283 284 283 282 282 285 284 282 277 276 272 272 271 270 269 266 268 267 270 272 268 264 265 266 266 264 264 263 266 266 269 269 270 269 270
Wind_Speed
7 7 6 6 5 5 5 5 6 5 6 6 6 7 6 6 6 6 6 7 7 5 5 6 5 6 7 8 8 7 6 6 5 6 6 6 7 10 13 17 19 21 21 22 21 19 17 18 19 18 19 19 19 19 18 18 19 18 18 18 19 19 19 19 19 19 20 20 20 20 21 21 21 21 22 21 21 21 22 22 22 22 23 23 22
7 6 7 7 6 5 5 5 6 5 6 7 6 7 7 6 6 7 7 7 7 5 5 6 5 5 6 8 8 7 5 5 6 6 6 6 7 9 17 14 16 18 19 18 21 21 20 18 19 19 19 19 18 17 17 17 17 17 18 18 18 18 19 18 19 19 19 20 20 20 20 20 19 20 21 21 20 21 21 21 21 22 22 22 23
9 8 6 7 6 6 6 5 6 5 6 6 5 6 6 6 7 7 7 7 6 5 5 6 5 6 6 8 7 6 6 5 6 6 7 7 7 7 12 19 15 15 17 18 18 18 18 18 18 18 19 19 17 16 16 17 16 16 16 17 17 17 18 18 19 19 19 19 19 19 19 19 19 20 20 20 21 21 21 21 22 21 21 22 22
10 9 8 7 7 6 6 6 6 5 6 7 6 6 6 6 6 6 7 7 7 6 5 6 5 5 5 8 7 7 6 5 6 6 7 7 7 7 8 9 18 15 15 18 17 17 15 15 15 16 16 16 16 16 15 15 15 15 16 16 16 17 17 17 17 18 18 18 18 18 18 18 18 19 20 19 20 20 20 20 21 20 20 21 21
9 11 9 8 7 7 6 6 6 6 6 7 7 6 7 7 7 6 7 7 8 7 5 6 6 4 4 5 7 7 5 6 6 7 7 7 6 6 7 7 8 13 17 11 12 13 15 15 15 15 15 14 15 15 14 14 14 15 15 15 16 16 16 17 17 17 17 17 17 17 17 18 18 18 19 18 19 19 19 19 19 19 19 19 21
9 9 9 8 7 7 8 7 7 7 7 7 7 6 8 8 8 7 7 8 8 7 7 7 5 4 4 4 7 6 6 7 6 6 6 6 5 7 6 7 7 7 8 13 11 12 14 14 13 13 15 14 14 14 14 14 13 14 15 15 15 15 15 16 16 16 16 16 16 16 17 17 16 17 17 17 18 18 18 19 18 18 19 19 19
10 10 9 9 9 7 7 8 8 8 8 7 8 6 7 9 9 9 7 7 7 6 7 7 6 5 3 3 6 6 6 7 6 6 7 6 7 6 6 6 6 6 7 6 9 11 12 13 14 13 14 14 14 14 13 13 13 13 14 14 14 14 15 15 15 15 15 15 15 15 15 15 16 16 17 17 18 18 19 18 18 18 17 18 18
10 11 11 9 9 9 8 8 9 8 8 8 8 9 7 7 7 10 10 8 8 7 5 8 7 6 3 4 4 5 7 6 6 6 5 6 6 6 6 6 6 6 6 6 6 9 17 16 15 11 12 13 12 13 13 12 12 13 13 13 13 13 14 14 14 14 14 14 14 14 14 15 16 15 17 17 17 17 18 17 17 17 17 17 18
11 11 11 11 10 9 8 9 9 9 9 9 8 8 9 8 7 6 8 10 9 10 7 7 7 6 4 4 4 5 6 6 6 5 5 7 6 5 6 6 5 6 5 6 5 6 11 16 15 15 9 9 10 11 12 12 12 12 11 12 13 13 13 13 13 13 13 13 13 13 13 14 14 15 15 16 16 16 17 17 17 16 16 17 17
12 11 10 12 12 11 10 11 10 9 10 10 9 8 8 9 9 6 7 9 8 9 9 7 7 6 6 5 4 5 5 6 5 4 6 6 5 6 5 5 5 5 5 5 5 5 6 9 13 13 13 8 10 10 10 10 11 11 11 11 13 12 12 12 12 12 12 12 12 12 12 12 13 14 14 15 15 16 16 16 15 15 15 16 17
12 12 10 10 10 10 11 12 11 10 10 9 9 9 9 8 10 9 6 5 8 7 8 8 8 7 6 5 4 4 4 4 5 6 5 5 5 5 5 5 5 4 4 4 4 5 5 5 6 6 7 10 10 9 8 9 9 9 10 11 12 12 11 11 11 11 11 11 11 11 11 12 13 13 14 15 14 15 15 15 14 14 14 15 17
13 12 10 10 10 10 11 11 10 11 11 10 10 10 12 12 10 12 11 7 6 8 9 10 9 8 7 5 4 4 4 4 5 4 3 4 5 5 5 4 5 3 4 3 4 4 5 5 5 5 5 10 13 11 10 8 6 9 10 10 11 11 11 10 10 10 10 10 10 10 11 11 12 12 13 13 14 14 15 14 13 13 14 15 16
12 14 12 11 10 10 11 11 9 11 12 13 13 13 12 12 11 9 14 12 7 7 8 10 13 8 6 5 5 4 4 4 4 4 3 4 4 5 4 5 3 4 3 4 4 4 4 5 5 5 5 5 6 8 9 10 9 9 8 9 10 10 10 9 9 9 8 9 9 10 10 10 11 11 12 13 14 14 14 13 13 13 15 15 15
10 10 11 13 11 10 11 13 11 10 10 11 12 12 12 11 11 9 7 13 11 11 11 12 4 9 10 5 4 4 3 4 3 2 3 3 4 5 4 5 4 3 3 5 4 4 3 4 4 4 3 2 2 2 4 5 7 10 11 11 8 8 8 8 8 8 7 8 8 9 9 9 10 11 12 12 13 13 12 12 13 14 15 15 16
12 12 12 12 13 12 12 11 12 11 9 9 9 10 12 14 15 14 11 5 8 9 13 7 8 6 4 8 4 4 1 1 1 1 2 3 3 4 4 4 4 3 4 5 4 4 3 3 3 2 1 1 1 2 2 4 6 10 11 12 10 7 7 7 7 6 7 7 8 8 8 8 9 10 11 12 13 13 12 12 13 14 14 15 16
12 13 12 12 13 13 12 11 11 12 12 13 12 12 12 12 11 12 14 12 9 12 11 6 10 15 7 3 4 4 3 6 3 1 1 3 5 4 4 4 4 4 3 5 4 3 2 2 3 3 2 1 0 1 2 2 5 8 9 9 9 8 5 6 5 6 6 6 7 7 7 7 8 9 11 11 12 12 11 12 14 13 14 15 15
11 13 13 14 13 13 14 14 13 13 11 13 15 16 15 14 14 12 15 16 13 9 11 5 10 5 9 9 3 1 6 4 6 0 1 2 2 5 4 4 5 5 5 4 3 3 3 3 3 3 3 2 1 0 1 2 3 2 3 5 3 6 7 4 5 5 5 5 6 6 6 6 7 9 11 11 12 11 11 13 13 14 14 15 15
8 11 12 13 15 15 14 14 13 13 12 13 12 10 12 14 17 16 15 12 16 13 13 7 10 9 6 1 4 8 10 8 9 5 0 1 3 4 6 5 4 5 4 4 4 4 4 4 4 4 3 3 2 1 1 1 1 1 1 3 2 3 4 4 4 4 5 5 5 5 5 6 7 9 10 11 10 10 12 12 13 14 14 14 15
6 9 10 10 12 13 14 14 14 13 12 12 13 15 14 15 12 13 15 11 11 15 17 13 6 9 8 3 1 1 12 14 8 6 3 3 3 4 4 5 5 5 6 5 5 5 5 4 5 5 4 3 3 2 2 0 0 2 5 2 5 3 3 3 3 4 5 6 5 5 4 5 7 9 9 10 10 10 12 12 12 13 14 14 15
5 6 9 10 11 11 13 13 13 12 12 12 14 14 12 11 13 12 10 11 14 15 15 12 16 13 9 6 1 3 11 2 10 14 10 11 7 2 1 6 4 6 7 7 7 7 6 5 5 5 5 4 3 3 2 1 0 1 3 4 5 4 3 3 3 3 5 5 5 4 4 5 7 8 9 9 9 10 11 12 13 13 14 14 15
6 6 7 10 10 11 12 12 13 14 12 11 11 13 16 15 15 14 14 13 13 11 11 14 13 11 9 3 4 4 4 2 5 4 6 7 3 9 7 1 3 5 6 7 7 6 6 6 5 5 5 4 4 3 3 2 1 0 4 3 3 4 4 4 3 4 3 3 3 3 4 5 7 8 8 8 8 10 11 11 12 13 14 14 14
7 7 7 8 10 10 11 14 15 13 12 13 12 13 14 15 18 17 16 15 12 12 13 11 12 9 11 7 6 4 3 2 3 3 3 2 9 13 10 13 11 9 7 8 8 7 6 5 5 4 4 5 3 4 3 3 2 0 3 3 3 3 4 4 3 3 2 1 1 2 4 5 7 8 8 8 8 9 10 11 12 12 13 14 15
7 8 8 8 9 11 12 12 11 12 13 13 14 14 14 15 14 15 12 14 12 13 11 11 11 9 9 9 10 13 13 10 12 10 7 5 4 6 7 11 10 7 9 7 7 6 6 6 6 5 5 5 4 4 4 4 3 3 3 4 4 3 3 3 3 2 2 1 1 2 4 5 6 7 7 7 8 9 10 11 12 12 13 15 16
8 8 9 9 10 10 12 11 11 11 13 12 12 13 13 13 13 14 15 16 14 13 11 12 14 10 11 10 10 9 6 6 9 11 10 8 10 11 11 6 1 4 1 4 3 6 7 7 7 6 6 5 5 5 4 4 4 7 2 4 4 5 3 3 3 3 3 2 1 2 3 4 5 6 6 7 8 9 9 10 11 12 13 15 15
10 10 10 11 10 11 11 12 11 11 12 11 11 13 12 12 13 14 15 16 15 15 13 14 15 14 14 12 9 8 9 5 7 10 4 5 8 8 3 7 6 6 2 5 5 4 6 7 7 6 6 6 5 5 5 5 4 7 6 4 5 4 3 3 3 3 3 3 1 2 3 3 4 5 6 7 8 9 10 10 11 12 13 14 14
10 12 10 10 10 10 11 11 11 11 11 13 13 13 13 13 13 14 13 13 13 15 14 13 12 13 9 9 9 9 8 6 8 7 8 9 7 11 10 3 2 6 2 5 2 4 6 6 6 6 6 6 6 6 5 5 5 8 8 4 4 4 4 5 6 6 5 4 2 3 3 3 3 4 6 7 8 9 10 10 11 12 12 13 14
9 9 8 9 9 9 11 11 12 11 11 12 12 12 13 12 12 14 14 13 14 13 12 13 12 13 12 11 10 8 8 6 7 9 8 10 11 11 13 11 2 3 4 3 3 8 4 3 7 7 7 7 7 7 6 5 6 9 8 3 3 5 5 7 8 8 6 4 4 5 4 3 3 5 6 7 8 9 10 11 11 12 12 13 13
8 8 9 9 10 10 10 12 11 12 12 13 13 12 13 13 12 12 14 10 13 15 13 13 14 14 14 11 9 10 8 8 9 9 8 8 9 10 11 13 14 6 4 5 6 8 6 5 3 7 8 8 7 7 7 7 6 10 9 4 4 4 6 8 9 9 7 5 5 6 5 4 4 6 7 8 8 9 10 11 11 11 12 12 14
8 8 9 9 10 11 11 11 11 11 12 13 13 13 14 14 14 15 16 14 14 16 14 14 13 13 11 13 12 11 9 7 7 8 9 7 8 11 11 13 12 11 9 8 9 9 7 10 7 8 9 8 8 6 6 7 7 7 5 5 4 3 6 9 10 9 8 7 6 7 7 6 5 7 8 9 9 10 10 11 11 12 13 13 14
9 8 9 10 10 11 11 11 11 11 12 12 13 13 13 13 14 14 14 12 13 12 12 13 13 11 11 10 10 9 8 9 9 8 8 9 8 9 10 7 8 11 8 10 10 8 5 6 7 5 8 9 7 7 6 7 8 8 5 5 5 4 7 9 9 10 8 7 8 8 7 7 7 8 9 10 10 10 11 11 11 13 13 14 14
10 10 10 10 10 9 10 11 10 11 11 11 11 12 12 12 12 12 12 12 13 13 12 12 11 11 12 13 11 10 8 9 8 8 7 8 8 8 7 6 6 6 10 6 4 3 6 8 8 3 8 10 8 7 6 6 7 8 6 6 5 7 8 6 9 9 7 7 8 9 8 8 9 10 10 10 10 10 11 11 12 13 13 13 14
10 10 10 11 10 10 9 9 10 10 11 10 11 11 10 11 11 12 12 13 14 14 13 11 9 11 13 14 13 11 8 8 8 7 8 8 8 8 8 7 5 4 8 7 6 4 1 2 5 5 6 9 8 8 7 5 6 10 6 6 5 7 5 4 8 8 7 8 9 9 9 9 10 11 10 10 10 11 11 12 13 13 13 14 14
9 10 11 11 10 10 10 10 11 11 11 11 10 10 11 11 10 12 11 12 14 12 10 11 10 11 12 13 12 11 9 10 8 7 7 9 8 8 7 7 8 7 8 7 7 4 1 1 3 6 5 7 7 8 8 7 6 6 6 5 5 4 4 5 5 7 8 9 10 10 10 10 11 12 11 10 10 11 12 12 12 12 13 13 14
10 11 11 10 10 11 11 11 10 10 10 12 11 11 12 12 12 10 11 13 14 14 11 13 12 10 12 13 12 10 10 11 10 10 10 9 9 9 8 9 9 8 6 7 5 6 6 2 4 3 5 6 7 6 10 9 8 5 6 6 4 4 5 6 6 5 8 10 10 11 11 11 12 12 12 11 10 11 12 12 12 12 13 13 13
9 10 10 10 10 10 11 11 11 11 11 11 10 11 12 14 14 12 12 13 14 14 13 13 13 12 12 12 12 11 9 10 10 10 10 10 9 11 11 9 10 9 7 6 6 5 9 6 5 6 7 7 8 8 9 7 6 6 7 6 6 5 5 5 5 4 8 11 12 12 13 13 13 13 12 12 11 11 12 13 12 12 12 13 14
10 10 9 10 10 11 12 12 12 12 12 11 10 11 13 14 14 14 13 13 13 14 15 15 14 13 14 13 12 13 12 13 12 10 9 9 11 10 11 9 9 9 7 6 6 5 4 8 5 7 6 7 6 2 5 5 5 5 5 4 3 5 5 5 5 5 7 12 12 13 14 13 13 13 13 12 12 12 13 13 13 13 13 14 14
9 9 10 9 11 12 12 13 13 13 13 12 12 12 12 12 14 14 14 14 14 14 15 15 15 15 14 15 14 13 13 14 12 11 11 13 11 11 10 9 8 8 6 6 6 5 6 8 6 3 3 3 1 2 5 7 5 4 2 4 5 5 5 4 4 4 7 12 13 14 14 14 13 14 14 13 12 12 14 13 12 12 13 15 15
10 10 11 10 11 12 12 12 12 13 12 12 13 13 14 13 13 13 13 13 14 14 13 14 14 14 15 15 14 16 16 14 12 11 12 14 10 10 10 9 8 8 8 6 6 6 7 7 8 5 4 6 3 4 5 5 6 5 4 4 3 4 4 5 5 4 3 4 4 6 9 11 11 14 14 13 12 13 14 13 12 12 13 15 15
12 11 11 11 11 11 12 12 12 12 12 12 12 13 13 13 14 14 14 14 13 13 12 14 13 14 14 14 14 15 16 17 18 17 15 13 12 13 12 11 10 10 9 8 7 7 7 6 3 5 7 5 5 6 3 5 3 4 5 3 6 4 5 6 7 4 3 5 8 12 10 8 8 7 10 13 13 13 12 11 11 12 13 14 15
12 12 12 12 10 10 12 12 12 11 11 11 12 13 13 13 13 13 13 13 13 13 13 13 13 14 14 14 14 15 15 14 13 14 16 15 12 12 10 10 11 11 10 8 8 7 7 6 6 6 5 6 4 0 3 3 2 4 5 6 8 5 5 4 7 6 3 5 6 6 8 9 8 10 11 10 9 10 10 10 10 11 12 13 14
11 12 11 11 11 12 12 12 11 11 11 12 12 13 13 13 12 13 13 14 15 15 14 14 14 14 14 13 13 14 14 16 20 18 17 15 14 12 11 12 12 12 10 8 7 7 5 6 5 3 5 5 6 6 5 6 9 11 3 6 7 6 2 3 5 5 5 4 5 4 6 4 4 4 4 4 3 4 5 7 7 10 11 12 13
11 11 10 10 12 14 13 12 11 10 11 11 14 20 17 14 14 13 12 12 13 13 13 13 13 13 15 15 15 22 22 21 20 21 21 21 21 18 16 14 14 11 11 10 9 8 8 8 8 7 6 7 8 9 9 9 6 3 4 6 7 4 2 4 5 6 5 5 5 6 6 3 4 4 4 5 2 2 4 4 5 7 9 12 13
12 11 10 12 13 11 12 12 12 12 11 12 18 19 21 21 15 13 14 13 13 13 12 13 13 15 15 16 15 19 21 19 16 18 19 21 20 19 22 22 19 19 15 13 11 10 10 9 7 7 8 9 9 8 9 7 5 7 6 6 5 4 5 3 6 5 1 7 5 4 6 3 5 5 4 5 4 4 4 5 9 10 11 12 13
12 9 11 13 12 12 11 12 13 13 12 13 17 20 21 22 19 14 12 13 13 14 13 14 14 14 14 13 11 10 13 15 16 17 18 19 19 18 20 19 17 16 17 17 14 10 10 9 8 10 9 10 8 8 8 6 8 6 6 6 6 6 6 5 5 5 3 5 6 4 5 2 3 4 3 5 5 5 5 8 10 9 10 12 14
9 11 13 13 13 13 12 14 14 13 12 14 18 21 22 22 23 18 12 13 13 14 15 16 15 15 14 14 12 11 12 20 17 15 15 15 16 20 22 22 22 20 19 20 19 18 14 11 11 10 11 10 8 9 10 9 6 8 6 6 6 6 6 6 8 4 3 4 3 4 4 3 5 3 5 6 5 4 6 8 9 9 10 13 14
11 12 12 14 13 13 13 13 13 12 13 15 20 21 21 22 22 19 13 14 14 14 15 15 15 15 16 16 16 15 14 15 15 16 15 14 13 13 13 13 12 16 18 17 17 14 13 12 11 11 12 9 10 7 7 8 9 8 8 7 6 5 6 8 5 4 2 5 6 1 3 2 4 4 6 5 4 5 6 7 9 9 11 13 13
12 13 13 13 14 13 13 13 12 13 12 16 19 21 21 22 22 20 14 12 12 13 13 14 13 12 12 12 14 15 15 16 15 18 18 16 13 11 11 11 12 12 11 9 9 9 9 8 9 11 6 8 6 5 8 8 9 7 7 6 8 6 3 1 1 0 1 3 3 2 5 0 1 2 5 5 5 6 5 6 9 10 11 11 10
9 9 10 11 13 13 12 12 13 15 13 18 20 21 22 22 23 15 13 13 14 13 13 13 12 11 11 13 12 13 13 14 15 20 16 14 13 13 13 11 10 8 9 7 10 10 9 9 8 7 5 7 8 6 7 7 5 4 5 6 5 4 4 2 6 2 3 4 4 5 2 2 2 4 3 4 4 6 5 3 8 10 10 8 6
11 12 12 12 11 12 13 13 15 15 14 17 21 22 22 23 19 13 13 12 13 13 13 13 12 11 12 11 9 6 7 10 13 19 18 15 14 14 12 10 8 8 8 6 9 12 12 11 10 8 9 11 13 13 13 13 8 7 6 5 5 5 4 6 6 3 5 4 4 5 2 5 3 4 5 4 6 5 5 5 4 5 5 5 5
12 13 11 11 11 11 13 15 15 15 14 14 19 21 22 23 20 15 13 12 13 13 12 10 9 8 10 15 12 11 12 10 11 14 17 15 14 14 13 12 10 8 7 6 6 6 10 10 11 12 12 12 13 14 15 15 14 11 8 9 6 7 7 7 8 5 1 2 4 5 2 5 0 2 4 4 2 3 4 3 3 2 2 1 3
11 9 9 10 11 11 12 13 15 16 14 13 18 20 22 22 20 13 12 11 12 12 10 9 7 9 7 11 16 13 12 12 19 18 18 13 12 13 13 12 12 12 11 10 10 8 7 6 5 6 7 10 9 8 9 16 17 13 9 7 6 7 8 7 7 1 2 3 5 7 4 3 3 3 4 3 3 2 1 1 1 2 1 1 2
Wind_Direction
149 149 145 148 151 142 127 123 120 125 119 111 116 117 109 111 107 105 101 99 93 80 77 73 69 78 91 83 78 72 64 53 44 43 38 37 45 40 86 101 102 96 94 96 97 96 93 96 93 89 86 85 84 83 82 80 78 79 77 76 74 73 72 71 68 67 65 63 60 58 56 55 54 53 49 46 45 43 42 40 36 35 34 34 30
150 150 151 154 156 138 127 133 129 135 126 124 128 120 123 116 111 110 108 102 96 82 81 80 69 72 78 86 81 77 68 59 49 44 42 40 37 41 39 70 87 94 94 97 101 102 101 99 98 93 89 87 86 86 86 84 82 78 77 77 75 73 72 70 68 66 64 62 60 59 56 55 50 51 50 46 44 42 40 39 35 35 34 31 28
152 155 156 155 154 143 141 136 131 137 131 125 126 123 119 119 124 123 120 113 99 90 86 82 75 69 76 85 82 79 68 58 55 51 49 41 41 39 42 42 55 82 95 100 98 96 100 101 98 99 97 93 88 85 82 84 84 83 78 76 75 74 72 70 68 66 64 61 59 59 58 56 51 49 50 46 44 42 39 37 35 35 31 31 28
157 157 159 160 155 148 146 143 141 142 135 131 126 122 121 116 111 110 112 111 106 95 86 91 74 67 74 86 86 79 71 66 67 56 56 50 45 42 43 42 42 42 77 90 91 94 96 95 96 97 97 94 94 93 86 83 81 80 79 77 76 75 73 70 69 68 65 63 60 58 56 55 51 49 49 44 43 41 37 37 35 33 30 30 26
167 159 159 160 154 150 152 148 147 145 137 132 124 123 118 115 107 111 106 104 104 97 93 89 82 57 68 83 92 82 76 75 69 65 61 58 50 51 47 47 44 42 36 49 100 112 108 104 98 97 97 96 95 91 89 86 83 82 80 76 73 72 73 72 70 68 65 63 60 57 56 55 49 47 49 43 42 38 38 36 35 31 29 27 26
164 160 157 156 158 157 154 151 152 147 139 135 133 138 134 130 130 121 122 122 119 118 112 99 86 65 69 77 82 89 89 78 72 72 73 65 60 58 54 52 49 43 35 27 28 90 93 95 100 99 100 99 97 98 91 86 84 83 80 78 76 74 71 70 70 66 64 64 61 57 56 55 50 46 47 42 40 37 37 35 34 29 27 25 25
171 160 163 160 161 161 160 158 153 150 144 148 141 144 142 141 142 132 128 119 116 119 119 111 104 85 61 76 90 93 82 87 80 77 74 75 69 62 58 55 56 49 42 30 18 40 78 93 106 103 105 104 100 98 97 92 89 84 81 80 77 75 73 74 70 67 64 61 60 57 55 53 49 42 44 41 39 34 35 34 32 28 25 21 22
173 167 161 168 166 166 165 157 156 152 149 150 149 149 151 144 147 142 136 135 131 123 117 114 107 93 62 70 85 89 93 89 87 83 77 78 70 66 59 59 53 55 44 35 29 28 45 43 41 90 107 104 107 103 101 98 95 91 88 83 80 76 73 70 68 67 64 60 58 57 51 48 49 43 41 40 40 32 35 31 29 26 21 17 20
175 177 166 169 169 167 164 162 159 156 155 156 156 155 152 149 146 145 139 140 137 129 123 117 109 103 90 75 66 90 90 94 93 94 86 78 73 66 66 56 58 53 47 42 37 32 37 41 40 30 50 84 101 108 109 110 103 98 92 88 82 78 75 69 67 65 63 61 56 53 50 46 47 44 44 44 38 32 33 28 27 22 16 15 19
177 179 179 173 171 166 162 163 161 160 157 159 160 154 153 151 141 140 141 139 140 139 133 118 108 103 89 80 72 75 87 92 91 85 90 92 81 78 77 72 66 60 53 48 44 44 40 34 35 29 24 71 94 105 105 104 103 102 98 92 84 82 77 73 66 64 64 62 57 51 45 45 46 41 39 42 34 32 29 28 22 18 12 12 13
180 181 183 175 167 164 164 170 165 162 159 158 156 157 153 154 146 134 123 122 139 133 128 123 109 100 90 78 83 77 74 80 83 88 87 102 104 98 86 71 78 63 64 54 49 52 53 47 40 35 14 45 86 86 95 98 101 101 98 94 94 86 78 74 68 62 62 62 57 48 40 39 43 36 35 41 32 28 24 24 19 11 12 8 14
181 183 181 174 170 168 169 172 169 160 159 160 163 165 162 156 155 145 134 115 114 130 130 119 100 90 87 70 60 73 71 78 81 85 91 92 101 96 91 85 82 80 72 68 65 57 62 56 47 40 29 17 24 22 33 54 67 91 97 94 94 89 84 76 70 65 59 58 58 49 41 36 40 35 31 34 33 27 23 19 12 6 5 9 13
189 179 177 176 175 166 164 171 173 170 167 172 174 168 165 157 150 150 144 137 137 147 142 129 118 90 77 78 58 40 64 76 78 82 88 97 95 100 104 99 94 96 93 83 72 67 67 61 53 46 35 25 4 9 22 22 38 63 74 92 89 88 86 79 73 69 60 57 55 48 41 34 31 33 28 27 27 26 20 14 3 0 3 7 11
188 184 176 174 170 170 170 173 174 179 179 172 168 164 158 155 149 144 164 150 153 165 164 135 129 148 142 127 64 47 51 61 69 72 99 101 111 108 115 115 121 119 102 90 83 82 75 71 69 63 43 23 1 2 358 11 9 39 41 34 73 89 83 75 73 69 63 53 54 51 40 30 28 26 32 25 24 22 17 6 354 360 4 4 9
186 184 180 180 174 170 176 176 177 167 157 156 167 169 167 165 166 157 156 168 148 174 177 190 132 124 101 98 154 114 147 49 49 90 115 118 114 117 125 122 141 133 124 104 101 98 91 95 104 113 129 71 38 8 3 11 23 29 32 27 21 68 77 77 69 64 63 57 51 49 40 26 23 25 31 26 18 16 11 355 349 3 359 4 6
185 185 184 180 175 176 171 176 179 174 168 165 173 178 171 170 175 168 154 154 175 183 198 177 154 140 159 167 167 109 119 237 179 203 132 149 135 143 139 146 152 133 113 122 130 122 127 130 145 159 162 155 180 4 28 27 27 24 16 7 20 30 46 75 68 63 58 60 52 47 39 24 20 18 27 27 15 15 1 343 352 356 359 3 2
186 186 187 185 181 178 177 178 177 179 176 175 175 179 178 176 169 171 180 167 169 175 199 197 190 208 134 133 89 284 214 168 127 263 124 150 167 155 159 160 162 152 136 139 132 158 163 162 172 177 173 170 170 153 48 41 22 20 4 343 33 20 8 67 72 60 57 51 51 49 34 25 21 19 24 24 13 9 344 349 349 350 357 359 359
193 192 194 189 184 182 178 176 181 179 180 179 175 173 174 171 183 183 184 188 167 167 186 214 208 213 245 329 164 171 166 172 141 203 97 236 184 177 170 181 170 150 148 152 166 184 187 180 179 180 175 164 173 153 102 56 29 342 328 267 127 88 49 31 56 62 53 47 41 36 34 27 20 29 20 16 14 355 340 348 348 349 353 356 358
206 192 192 195 189 182 180 180 180 182 182 177 176 179 181 182 181 185 195 177 170 173 182 187 193 241 236 240 60 167 138 140 188 85 163 259 203 184 203 193 175 160 167 178 181 183 199 192 187 180 176 170 168 165 126 51 11 320 313 247 126 113 100 85 45 42 41 39 31 32 32 27 29 29 25 13 3 344 343 343 346 345 352 353 355
213 206 195 192 193 189 183 179 180 185 182 189 183 179 178 182 186 190 186 189 186 182 183 173 182 206 201 211 67 130 164 78 159 169 162 170 209 250 251 193 189 190 180 181 188 190 190 198 193 186 178 183 174 166 156 150 257 320 311 288 145 137 131 120 106 69 48 35 23 23 28 29 31 30 26 11 356 341 343 341 341 344 348 349 356
227 216 210 196 194 193 187 184 184 184 185 188 185 178 179 176 178 189 199 193 195 198 181 186 195 193 163 167 120 147 149 45 134 56 139 143 160 185 186 154 219 219 201 191 191 192 195 194 193 183 183 183 184 173 174 184 220 310 303 297 180 166 153 143 127 100 75 46 20 9 22 30 30 30 22 7 351 340 337 338 341 343 346 349 349
232 226 216 208 192 193 196 190 187 184 184 187 181 181 185 186 188 190 195 190 195 194 195 191 197 189 185 152 148 132 103 91 159 119 61 122 163 190 188 176 193 213 188 196 193 194 194 198 196 189 196 192 191 182 182 192 192 258 294 268 226 186 163 156 137 121 105 88 49 356 19 27 29 26 17 2 345 335 336 339 341 342 344 343 343
224 229 221 206 200 192 194 198 193 184 184 186 187 186 187 189 187 187 196 204 201 200 200 194 193 189 178 173 180 174 173 175 183 189 163 154 102 174 177 197 194 165 210 189 190 194 191 192 195 199 197 199 197 192 193 194 193 219 245 239 229 218 199 161 147 153 166 190 7 355 22 24 22 21 11 352 336 332 335 338 338 339 339 340 341
216 222 219 207 199 199 197 193 193 190 192 191 188 189 189 189 187 191 196 199 202 204 202 191 190 194 192 190 191 193 197 182 179 176 173 178 169 167 176 153 145 222 113 171 201 196 197 198 202 196 198 195 203 199 194 182 200 211 192 254 228 225 216 201 182 186 203 220 280 355 6 5 16 15 359 336 324 328 331 330 332 333 337 339 338
217 218 219 205 200 198 195 195 197 198 192 188 193 188 184 188 193 198 200 198 200 199 199 200 192 192 197 197 191 190 198 183 166 177 160 127 146 141 159 166 161 166 178 157 197 206 210 211 196 204 191 196 202 207 195 183 195 219 192 250 237 224 234 247 230 234 221 233 263 327 331 344 5 360 341 320 318 322 323 324 326 330 332 333 335
218 221 218 210 205 203 197 199 198 195 191 193 191 189 187 191 190 192 202 206 204 201 204 203 201 204 194 188 199 196 196 168 171 161 155 145 154 157 148 130 79 155 95 181 191 162 236 216 209 198 195 193 203 205 201 191 198 214 194 203 244 231 230 240 241 241 241 234 257 275 284 316 341 335 316 311 315 316 316 318 320 322 326 329 333
219 224 217 214 212 204 201 198 198 197 193 193 194 191 191 194 195 197 198 200 202 207 207 200 199 199 197 195 197 195 185 180 169 183 169 173 162 157 148 143 82 132 170 191 227 224 203 194 187 203 199 195 200 204 203 195 196 209 198 189 224 234 239 241 243 243 243 245 246 256 271 294 314 307 301 304 305 308 310 312 315 319 322 323 329
219 218 217 209 210 207 201 202 198 197 195 196 193 191 192 194 198 198 201 200 202 203 208 203 204 200 197 194 188 203 187 179 183 179 185 174 159 159 163 160 154 174 181 201 215 243 186 194 202 206 196 197 201 204 202 191 195 206 197 190 205 230 240 246 249 246 247 246 247 254 263 279 289 287 289 292 295 297 300 303 308 312 313 316 321
212 213 216 211 212 208 202 203 201 198 197 199 197 197 193 195 198 199 202 198 200 202 201 201 204 196 197 194 195 195 194 180 183 181 180 167 169 170 173 172 175 154 166 200 221 215 209 195 187 210 193 195 200 202 197 203 199 197 189 193 203 202 231 245 250 251 251 253 253 255 261 269 276 281 283 285 288 291 296 302 307 308 309 313 317
204 210 210 211 215 211 208 204 202 199 201 199 200 199 196 200 202 203 204 195 201 203 203 201 199 192 195 198 200 201 188 184 188 183 175 173 168 179 185 191 168 163 167 175 217 194 190 194 199 176 185 199 196 198 201 203 202 197 191 200 204 202 227 243 251 257 262 264 266 264 262 265 270 274 278 281 283 289 295 301 304 305 308 313 318
202 204 207 211 211 217 215 207 203 204 203 201 199 199 198 202 202 202 199 195 199 202 202 197 199 190 192 197 201 206 185 195 189 179 177 167 178 179 182 162 195 160 156 158 179 249 156 187 207 175 174 193 192 193 197 202 205 199 194 202 208 208 221 240 250 258 266 269 268 269 268 269 267 269 273 277 283 287 294 300 303 304 310 315 317
208 198 205 209 209 209 215 217 209 205 203 203 199 199 196 202 203 206 200 193 202 206 201 198 193 195 195 198 196 197 188 190 189 182 177 180 170 173 173 173 160 154 146 151 177 181 181 179 176 178 177 181 185 189 200 205 211 209 196 204 208 207 222 225 247 254 264 266 266 263 265 264 265 268 272 279 284 287 289 295 299 306 313 314 315
200 206 205 206 208 212 212 215 215 207 203 201 200 198 198 203 206 208 202 199 202 206 198 198 195 191 194 197 196 196 175 183 187 178 177 174 170 174 164 156 164 173 158 155 158 126 71 22 139 174 174 163 189 196 194 200 206 213 204 207 205 205 213 223 228 243 253 260 261 263 264 265 266 266 268 274 281 285 286 289 301 310 311 312 316
199 206 209 206 206 208 211 216 219 216 211 205 196 194 199 201 204 205 204 200 202 201 193 198 196 193 191 193 194 187 179 186 175 178 176 171 172 163 170 171 176 180 175 141 154 145 167 131 136 77 146 187 195 188 193 193 210 197 212 215 211 207 219 219 221 231 244 252 256 258 258 260 261 264 268 272 280 285 287 291 299 304 310 313 317
208 208 207 207 208 208 212 214 214 215 213 210 201 198 200 200 201 202 202 202 201 196 194 198 195 190 189 193 191 181 180 180 182 179 171 172 170 169 175 181 175 177 174 155 134 154 159 179 153 158 176 190 202 191 199 207 200 188 203 215 216 216 222 218 220 229 240 248 251 253 254 256 258 261 265 270 276 282 285 286 292 301 309 317 318
213 208 204 209 209 210 213 213 213 213 211 211 206 205 205 203 202 202 200 202 205 201 198 195 191 188 192 189 189 182 182 184 180 174 174 170 173 175 172 178 172 168 162 159 160 133 150 147 192 182 181 175 217 196 194 197 191 195 203 219 211 222 225 221 216 229 239 247 253 255 256 257 259 263 266 270 275 279 282 285 290 298 311 320 321
219 213 210 202 210 212 214 214 213 213 213 209 207 207 210 209 207 204 202 202 203 203 201 198 191 190 189 193 185 183 185 185 184 178 170 175 180 173 172 169 167 159 147 146 140 126 142 169 160 168 153 206 216 172 178 185 210 213 215 216 214 219 232 232 229 234 241 248 253 256 256 257 258 261 265 270 276 282 285 287 291 298 310 319 321
216 216 213 207 207 212 215 216 215 216 213 210 209 208 207 207 207 207 204 203 206 204 202 200 194 192 191 192 186 182 182 186 188 182 175 176 170 173 168 165 157 149 146 139 138 144 155 164 158 147 170 184 201 218 196 197 180 203 229 240 242 233 229 258 241 228 225 229 244 256 257 258 261 263 267 273 279 287 288 286 289 300 312 319 316
216 216 215 216 215 211 213 214 216 215 213 211 212 211 210 208 207 206 204 204 205 206 204 202 196 195 194 191 187 189 192 190 182 181 176 175 175 177 173 164 160 152 149 151 152 150 153 145 146 169 173 205 194 210 205 196 215 198 201 228 261 219 210 225 258 236 208 237 243 244 242 231 229 242 260 268 274 275 277 281 296 308 314 312 307
218 217 216 216 217 215 217 215 216 212 211 211 212 212 210 209 207 207 205 205 207 207 206 203 198 194 193 192 189 191 193 196 193 186 176 175 175 172 170 161 161 154 153 151 148 147 144 151 168 176 187 171 205 45 59 121 210 278 224 198 236 237 212 221 229 238 230 203 244 252 251 249 245 250 259 269 278 283 288 298 305 303 304 302 299
218 219 217 213 216 219 220 215 212 210 210 212 211 209 207 207 206 209 209 208 205 205 205 204 199 195 193 191 190 191 195 196 193 190 189 178 170 171 170 165 162 156 150 150 152 147 148 156 170 146 168 188 197 175 175 185 198 213 177 172 230 251 201 233 254 227 222 222 241 235 250 203 197 236 253 269 263 272 287 289 293 298 295 294 295
219 218 214 213 218 220 217 216 212 210 215 215 212 209 207 205 203 203 204 209 210 211 206 202 201 201 201 197 194 190 194 198 199 197 191 183 179 172 168 170 162 153 154 152 153 160 161 170 187 174 185 208 200 198 200 212 203 111 128 161 206 230 173 259 280 242 206 199 226 242 246 199 173 225 238 249 243 239 240 260 255 263 275 286 292
219 218 213 216 220 222 222 219 215 214 217 218 213 209 209 209 206 205 202 204 202 204 203 201 203 204 205 204 202 195 193 195 196 198 198 190 185 179 173 170 165 160 156 156 163 166 169 184 180 179 197 209 212 198 209 205 187 195 190 175 187 165 200 230 267 310 225 177 213 222 254 208 161 208 234 237 225 229 242 239 257 273 281 288 293
220 214 218 222 222 220 222 222 222 220 221 217 213 212 211 209 206 206 206 203 202 205 204 204 205 202 204 204 206 197 196 189 186 193 198 195 186 175 171 164 158 156 158 158 159 163 176 175 178 196 193 212 208 183 203 184 205 187 189 173 186 190 212 217 231 227 254 163 196 209 256 232 152 191 231 240 226 222 232 244 262 274 287 293 299
212 213 221 220 223 222 222 223 225 223 226 214 213 213 212 211 208 203 207 208 203 206 204 206 206 205 197 194 193 194 202 191 187 187 185 188 186 177 174 169 166 162 165 163 160 169 174 174 182 193 197 204 199 209 192 188 164 183 169 184 192 198 205 220 230 234 243 185 153 220 249 228 158 192 220 243 211 215 240 258 265 281 288 292 298
216 220 221 222 221 221 222 225 227 226 225 215 214 215 214 212 210 206 212 210 214 210 210 209 209 204 197 192 191 194 194 190 190 184 181 179 176 177 176 171 168 169 166 164 167 152 158 176 183 194 211 183 204 198 169 153 160 185 173 194 180 190 203 221 224 209 224 170 188 185 287 220 179 177 233 245 202 225 226 232 253 272 285 291 300
216 218 219 221 222 221 222 222 227 227 227 217 215 214 215 214 213 209 213 214 216 217 215 214 212 208 209 205 199 196 191 190 192 183 175 172 168 168 170 173 173 175 169 159 161 162 171 187 191 209 192 188 197 141 162 174 184 186 179 176 181 186 174 90 31 90 179 212 177 126 254 330 115 158 233 223 218 222 226 241 264 275 280 292 301
224 225 228 222 224 222 221 220 225 230 227 216 215 215 214 214 212 213 215 213 216 217 216 215 213 205 198 201 202 194 193 194 191 179 167 160 161 163 170 177 175 172 176 180 168 163 172 185 196 202 184 174 180 169 165 173 176 143 99 74 86 100 138 211 235 238 203 248 196 163 247 269 201 193 246 214 188 216 236 233 247 261 281 294 294
220 221 223 220 221 219 219 219 224 231 230 217 214 214 213 212 210 215 214 215 218 218 217 213 210 204 202 198 186 191 200 203 191 174 162 150 160 163 168 174 177 169 180 175 175 178 183 192 199 196 182 178 179 178 174 171 169 154 123 125 180 153 164 229 243 197 239 205 217 171 156 273 227 205 273 242 209 216 226 225 226 251 273 277 281
222 223 220 226 223 220 219 221 221 229 232 220 216 216 213 211 208 211 211 212 217 215 217 209 203 198 195 184 179 179 181 184 193 183 163 159 160 162 164 165 167 174 188 175 165 177 189 191 195 198 197 193 185 185 185 186 180 158 157 198 187 149 206 212 238 196 237 222 220 150 124 233 168 219 235 264 242 246 205 213 200 235 221 245 262
230 223 220 225 227 224 225 225 225 227 234 226 218 218 215 213 211 213 212 215 217 215 205 203 194 193 190 184 181 178 175 173 176 176 165 166 161 165 170 169 170 182 193 177 172 162 171 177 200 189 200 199 194 187 195 195 195 180 184 188 145 168 201 213 215 167 306 264 214 151 167 273 157 250 161 317 305 263 143 240 146 137 130 166 279